METAR Formatted Surface Weather Observation
Issued by NWS

Home | Current Version | Previous Version | Text Only | Print | Product List | Glossary On
Versions: 1 2 3 4 5 6 7 8 9 10 11 12 13 14 15 16 17 18 19 20 21 22 23 24 25 26 27 28 29 30 31 32 33 34 35 36 37 38 39 40 41 42 43 44 45 46 47 48 49 50
667
SAUS46 KMFR 271757
MTRSXT
METAR KSXT 271756Z AUTO 23008KT M1/4SM -SN FZFG VV002 M02/M03 A2980
RMK AO2 SNE05B28 SLP121 P0001 60001 I1001 I6023 T10221033 11022
21033 53015



USA.gov is the U.S. government's official web portal to all federal, state and local government web resources and services.